CAPE
0 18 21 0 14 41 10 0 0 0 0 0 0 0 0 0 0 0 0 0 0 0 0 0 0 0 0 0 0 0 21 211 349 411 285 316 220 190 169 57 0 0 0
0 0 0 0 0 0 0 0 0 0 0 0 0 0 0 0 0 0 0 0 1 2 2 4 1 0 0 0 0 0 0 27 108 70 16 78 68 120 193 225 118 11 0
0 0 0 0 0 0 0 0 0 0 0 0 0 0 0 0 0 0 1 1 0 2 1 1 1 4 4 2 0 0 0 0 21 163 0 11 5 5 33 117 178 145 39
0 0 0 0 0 0 0 0 0 0 0 0 0 0 0 0 1 0 2 1 0 4 3 2 2 1 2 12 8 9 5 7 8 41 120 66 0 91 90 129 111 205 250
0 0 0 0 0 0 0 0 0 0 0 0 0 0 0 0 0 0 0 2 1 5 5 3 3 3 2 1 4 8 11 18 20 29 35 49 69 66 48 10 160 307 349
0 0 0 0 0 0 0 0 0 0 0 0 0 0 0 0 0 0 0 0 2 2 4 8 8 3 4 5 4 4 7 13 23 25 28 42 52 18 36 20 48 54 44
0 0 0 0 0 0 0 0 0 0 0 0 0 0 0 0 1 0 1 2 1 1 1 2 7 10 3 4 7 11 17 14 16 27 23 28 33 44 38 38 0 5 0
0 0 0 0 0 0 0 0 0 0 0 0 0 0 0 0 1 0 1 0 0 0 1 3 0 3 10 13 13 14 12 16 13 13 24 28 17 36 35 44 49 21 51
0 0 0 0 0 0 0 0 0 0 0 0 0 0 0 0 0 2 0 0 0 0 0 1 4 0 0 3 9 17 21 19 8 12 13 18 2 17 47 49 57 52 29
0 0 0 0 0 0 0 0 0 0 0 0 0 0 0 0 0 0 1 0 0 0 0 0 2 1 5 5 7 2 4 15 18 19 17 12 15 11 27 42 45 57 54
0 0 0 0 0 0 0 0 0 0 0 0 0 0 0 0 0 0 1 0 0 0 0 0 0 2 2 3 2 3 4 24 24 18 22 21 20 14 24 44 46 41 35
0 0 0 0 0 0 0 0 0 0 0 0 0 0 0 0 0 0 0 0 0 0 1 1 0 1 2 1 2 2 2 3 3 0 14 18 20 26 29 38 52 50 42
0 0 0 0 0 0 0 0 0 0 0 0 0 0 0 0 0 0 0 0 0 0 0 1 1 2 3 3 0 1 6 16 22 20 38 25 29 27 30 58 62 38 91
0 0 0 0 0 0 0 0 0 0 0 0 0 0 0 0 0 0 0 0 2 0 0 0 1 2 2 2 1 1 0 0 5 18 27 34 31 7 12 17 29 21 77
0 0 0 0 0 0 0 0 0 0 0 0 0 0 0 0 0 0 0 0 1 0 0 0 1 2 1 3 4 4 2 1 1 2 3 39 34 6 8 1 0 4 15
0 0 0 0 0 0 0 0 0 0 0 0 0 0 0 0 0 0 0 0 0 0 1 0 0 0 1 1 2 3 4 3 2 3 2 22 1 2 3 2 1 2 12
0 0 0 0 0 0 0 0 0 0 0 0 0 0 0 0 0 0 0 0 0 0 0 1 0 1 1 1 2 0 3 2 2 1 0 0 0 0 0 1 2 4 0
0 0 0 0 0 0 0 0 0 0 0 0 0 0 0 0 0 0 0 0 0 0 0 1 0 1 0 0 0 1 1 1 3 3 3 2 1 1 0 0 0 0 1
0 0 0 0 0 0 0 0 0 0 0 0 0 0 0 0 0 0 0 0 0 0 0 0 0 0 0 0 0 0 2 1 0 2 3 3 3 3 1 0 1 3 5
0 0 0 0 0 0 0 0 0 0 0 0 0 0 0 0 0 0 0 0 0 0 0 0 0 0 0 0 0 0 0 1 0 0 3 4 3 2 1 1 3 1 1
0 0 0 0 0 0 0 0 0 0 0 0 0 0 0 0 0 0 0 0 0 0 0 0 0 0 0 0 0 0 0 0 1 1 1 5 6 4 0 0 0 1 2
0 0 0 0 0 0 0 0 0 0 0 0 0 0 0 0 0 0 0 0 0 0 0 0 0 0 0 0 0 0 0 0 0 0 0 2 2 3 4 3 4 4 2
0 0 0 0 0 0 0 0 0 0 0 0 0 0 0 0 0 0 0 0 0 0 0 0 0 0 0 0 0 0 0 0 0 0 0 0 0 0 0 0 0 0 0
1 0 0 0 0 0 0 0 0 0 0 0 0 0 0 0 0 0 0 0 0 0 0 0 0 0 0 0 0 0 0 0 0 0 0 0 0 0 0 0 0 0 0
1 0 0 0 0 0 0 0 0 0 0 0 0 0 0 0 0 0 0 0 0 0 0 0 0 0 0 0 0 0 0 0 0 0 0 0 0 0 0 0 0 0 0
4 1 0 1 0 0 0 0 0 0 0 0 0 0 0 0 0 0 0 0 0 0 0 0 0 0 0 0 0 0 0 0 0 0 0 0 0 0 0 0 0 0 0
CIN
0 -3 -20 0 -110 -140 -202 0 0 0 0 0 0 0 0 0 0 0 0 0 0 0 0 0 0 0 0 0 0 0 -28 -74 -10 0 -26 -18 -32 -28 -56 -99 -2 0 0
0 0 0 0 0 0 0 0 0 0 0 0 0 0 0 0 0 0 0 -1 -1 -1 -1 -1 0 0 0 0 0 0 0 -1 -85 -86 -87 -100 -147 -134 -73 -36 -76 -168 0
0 0 0 0 0 0 0 0 0 0 0 0 0 0 0 -1 -1 -1 -1 -1 -1 -2 -2 -1 -1 -1 -1 -1 0 0 0 0 -1 -27 0 -2 -1 -1 -186 -104 -49 -49 -96
0 0 0 0 0 0 0 0 0 0 0 0 0 0 0 0 0 -1 -2 -2 -1 -3 -8 -5 -3 -4 -1 -1 0 0 -1 -1 -1 -2 -41 -47 0 -70 -67 -99 -103 -30 -23
0 0 0 0 0 0 0 0 0 0 0 0 0 0 0 -1 -2 -1 0 -1 -3 -3 -2 -5 -3 -1 -2 -2 -2 -1 -2 -1 -1 -1 -1 -2 -37 -26 0 -1 -33 -3 -1
0 0 0 0 0 0 0 0 0 0 0 0 0 0 0 0 0 0 0 0 -1 -1 -1 -1 0 -2 -1 0 -1 -2 -2 -1 -1 0 -1 0 0 0 0 -1 -49 -40 -67
0 0 0 0 0 0 0 0 0 0 0 0 0 0 0 0 -1 -1 0 -1 0 0 0 0 0 0 -1 -2 -1 -1 0 -1 -2 -1 -1 -2 -1 -1 -1 -1 0 -1 0
0 0 0 0 0 0 0 0 0 0 0 0 0 0 0 0 -1 -1 0 -1 0 0 0 0 0 -1 0 -1 -3 -4 -1 0 -1 -2 -2 -1 -1 -1 -2 -3 -6 -1 -11
0 0 0 0 0 0 0 0 0 0 0 0 0 0 0 0 0 0 0 0 0 0 0 0 0 0 -1 -1 -1 0 -1 -1 -1 -1 -2 0 -1 -1 -3 -2 -4 -80 -1
0 0 0 0 0 0 0 0 0 0 0 0 0 0 0 0 0 0 -1 0 0 0 0 0 0 0 0 -1 -2 -1 -5 -4 -1 -1 0 -1 -1 -2 -2 -4 -5 -5 -2
0 0 0 0 0 0 0 0 0 0 0 0 0 0 0 0 0 0 0 -1 0 0 0 0 0 0 0 -1 0 0 0 -1 0 -2 -3 -6 -2 -5 -3 -1 -4 -5 -6
0 0 0 0 0 0 0 0 0 0 0 0 0 0 0 0 0 0 0 -1 0 0 0 0 0 0 0 0 0 0 -2 -2 -1 0 -1 -1 -4 -1 -4 -2 -2 -4 -6
0 0 0 0 0 0 0 0 0 0 0 0 0 0 0 0 0 0 0 0 0 0 0 0 0 0 0 0 0 0 0 -11 -1 -1 -6 -4 -1 -2 -3 -3 -2 -5 -2
0 0 0 0 0 0 0 0 0 0 0 0 0 0 0 0 0 0 0 0 0 0 0 0 0 0 0 0 0 0 0 0 0 -7 -1 -1 -1 -18 -11 -6 -7 -7 -1
0 0 0 0 0 0 0 0 0 0 0 0 0 0 0 0 0 0 0 0 0 0 0 0 0 0 0 0 0 0 0 0 0 -1 -13 -2 -6 -22 -24 -26 -6 -16 -9
0 0 0 0 0 0 0 0 0 0 0 0 0 0 0 0 0 0 0 0 0 0 0 0 0 0 0 0 0 0 0 0 0 0 -8 -4 -20 -25 -34 -45 -36 -21 -2
0 0 0 0 0 0 0 0 0 0 0 0 0 0 0 0 0 0 0 0 0 0 0 0 0 0 0 0 0 0 0 0 0 0 0 0 0 0 0 -11 -9 -29 0
0 0 0 0 0 0 0 0 0 0 0 0 0 0 0 0 0 0 0 0 0 0 0 0 0 0 0 0 0 0 0 0 0 0 0 0 0 0 0 0 0 0 0
0 0 0 0 0 0 0 0 0 0 0 0 0 0 0 0 0 0 0 0 0 0 0 0 0 0 0 0 0 0 0 0 0 0 0 0 0 0 0 0 0 0 0
0 0 0 0 0 0 0 0 0 0 0 0 0 0 0 0 0 0 0 0 0 0 0 0 0 0 0 0 0 0 0 0 0 0 0 0 0 0 0 0 0 0 0
0 0 0 0 0 0 0 0 0 0 0 0 0 0 0 0 0 0 0 0 0 0 0 0 0 0 0 0 0 0 0 0 0 0 0 0 0 0 0 0 0 0 0
0 0 0 0 0 0 0 0 0 0 0 0 0 0 0 0 0 0 0 0 0 0 0 0 0 0 0 0 0 0 0 0 0 0 0 0 0 0 0 0 0 0 0
0 0 0 0 0 0 0 0 0 0 0 0 0 0 0 0 0 0 0 0 0 0 0 0 0 0 0 0 0 0 0 0 0 0 0 0 0 0 0 0 0 0 0
0 0 0 0 0 0 0 0 0 0 0 0 0 0 0 0 0 0 0 0 0 0 0 0 0 0 0 0 0 0 0 0 0 0 0 0 0 0 0 0 0 0 0
-1 0 0 0 0 0 0 0 0 0 0 0 0 0 0 0 0 0 0 0 0 0 0 0 0 0 0 0 0 0 0 0 0 0 0 0 0 0 0 0 0 0 0
0 0 0 0 0 0 0 0 0 0 0 0 0 0 0 0 0 0 0 0 0 0 0 0 0 0 0 0 0 0 0 0 0 0 0 0 0 0 0 0 0 0 0
Wind_Speed
7 5 23 22 19 22 24 25 25 25 26 27 29 30 31 30 30 30 31 32 33 33 33 32 31 30 30 31 30 30 27 30 32 32 35 35 34 32 32 30 27 26 26
13 13 5 19 21 21 23 24 24 24 25 26 26 27 29 30 31 33 34 33 34 34 34 34 33 31 31 30 31 30 32 30 29 34 34 38 36 35 34 33 31 31 29
12 14 16 16 19 23 24 22 23 22 23 24 25 27 28 29 30 31 32 32 33 33 33 33 35 34 33 33 32 32 33 34 31 30 33 36 40 37 35 36 36 35 33
13 14 15 17 14 17 24 21 22 23 22 23 25 27 29 32 31 33 33 34 35 34 33 33 34 36 37 35 34 34 34 35 37 34 34 38 37 34 36 32 34 36 37
15 14 15 16 16 12 26 25 24 23 25 25 26 28 29 30 30 30 33 33 33 34 33 33 33 34 35 36 35 34 34 34 36 37 38 38 41 44 47 47 37 33 32
18 16 14 13 11 12 23 28 27 24 24 27 29 30 31 31 31 32 33 33 33 32 31 31 31 30 31 32 33 33 35 37 38 39 40 42 42 43 42 44 44 40 36
16 14 12 11 11 11 16 26 27 28 28 28 29 29 30 30 31 31 31 32 32 31 31 31 30 28 26 26 28 29 29 31 34 36 39 41 44 44 42 44 49 49 46
12 9 8 7 7 8 11 20 24 24 23 25 26 25 26 26 27 28 30 32 32 33 33 31 32 33 29 27 25 26 26 28 32 34 36 39 40 41 42 44 42 45 42
12 10 6 4 3 4 9 10 7 6 21 23 24 26 27 28 29 31 31 31 33 33 34 34 33 33 30 26 27 30 27 26 29 34 35 36 39 40 40 39 41 44 49
12 9 7 4 2 2 10 12 13 15 15 24 25 24 26 28 28 30 32 33 34 34 35 35 34 35 29 25 26 29 29 26 28 33 34 34 36 38 39 40 40 39 42
22 17 17 11 4 3 4 7 8 10 10 7 6 11 18 23 27 28 30 32 33 33 34 35 35 34 34 28 25 25 25 26 29 32 34 33 33 34 34 36 38 38 38
28 27 27 25 21 12 4 0 2 3 4 6 10 16 20 24 28 29 29 29 29 30 32 33 33 33 32 32 28 28 23 25 27 29 31 32 30 31 33 34 33 35 37
30 29 29 30 30 30 29 27 23 17 18 16 15 15 18 20 26 30 27 26 27 28 29 30 30 31 31 32 32 33 28 30 28 33 34 30 28 29 29 30 31 32 32
30 31 32 32 32 32 32 32 31 30 29 26 23 20 18 16 19 27 27 25 25 26 27 27 27 27 27 31 32 33 35 34 29 29 29 26 24 24 25 26 30 33 34
32 34 36 37 36 36 36 34 33 32 31 29 25 23 22 21 23 24 27 27 26 25 24 25 25 25 25 27 35 36 36 33 28 27 27 22 18 16 17 25 26 36 38
34 37 39 40 40 41 40 38 37 34 31 31 29 26 25 25 26 27 27 27 25 24 23 23 24 26 26 31 32 36 35 30 20 25 25 15 13 9 10 13 20 26 34
37 42 44 45 45 46 45 44 41 38 35 30 29 29 29 28 27 26 26 26 25 24 23 23 24 24 26 31 31 33 32 27 22 25 23 19 13 11 15 16 19 36 34
46 47 45 46 46 46 46 45 44 41 39 36 33 30 29 30 30 28 27 27 25 23 23 23 23 24 23 28 29 29 27 26 24 24 21 20 17 15 7 14 21 23 26
48 47 46 47 47 48 46 46 45 43 41 40 38 34 31 29 29 30 28 27 26 25 22 22 23 22 22 24 25 24 24 25 24 21 20 19 20 22 16 10 13 16 19
48 50 50 48 46 45 46 45 46 46 45 41 41 38 34 31 30 27 29 27 26 25 23 22 22 21 20 22 22 21 21 22 22 21 18 18 20 20 18 13 10 10 15
54 53 50 48 48 46 45 46 46 44 44 43 43 41 37 33 31 30 26 27 26 25 23 21 21 21 20 20 20 20 19 19 19 19 18 18 19 19 19 18 13 11 12
53 51 50 48 44 44 44 45 43 43 43 44 42 41 39 36 32 30 28 25 27 25 25 23 21 21 20 20 19 18 18 16 17 17 17 17 18 17 16 15 14 14 14
49 48 48 50 47 44 43 45 44 44 43 41 41 41 39 37 34 31 30 27 25 28 25 25 23 21 21 18 17 16 15 16 16 15 14 15 16 16 16 16 15 15 15
50 48 48 50 50 48 47 46 49 47 44 42 41 42 40 38 35 33 31 29 27 26 29 26 25 22 21 19 16 15 14 13 13 13 14 14 14 15 15 16 16 16 15
45 46 47 49 50 50 49 48 48 46 42 41 41 41 40 37 35 33 31 31 28 26 28 27 24 22 22 21 17 15 14 14 12 11 13 14 14 14 15 15 15 15 15
43 46 45 46 48 49 49 47 46 46 45 43 43 40 38 36 33 32 32 30 30 28 26 28 24 22 22 17 16 16 14 12 12 15 15 15 15 15 15 15 15 16 16
Wind_Direction
124 332 279 279 267 259 261 265 269 274 278 282 285 287 288 293 295 296 296 295 294 292 290 289 288 286 282 281 280 280 276 274 275 276 276 276 275 273 274 277 277 274 273
107 138 100 272 259 259 263 268 273 277 281 284 288 291 292 294 296 296 296 296 295 293 290 288 287 286 284 281 278 278 278 277 272 273 276 279 276 276 272 272 272 273 275
105 127 147 201 267 261 263 274 278 285 286 287 291 293 296 298 298 300 300 299 298 296 293 289 287 286 284 282 280 276 275 276 274 267 269 276 276 281 275 270 270 270 270
103 128 141 152 148 282 265 281 284 286 292 292 291 292 294 295 298 301 303 302 299 297 294 292 289 285 283 282 280 279 277 275 274 275 268 268 277 280 282 276 274 271 266
94 115 133 157 169 152 263 275 283 290 286 289 290 292 294 298 302 305 306 306 300 298 295 294 292 288 284 281 280 280 278 276 275 274 274 274 272 273 275 278 280 276 270
82 100 120 133 141 159 213 243 276 289 289 283 282 283 285 290 294 297 301 304 305 303 303 299 296 293 290 285 282 280 278 278 277 276 274 273 273 273 272 272 272 274 277
74 89 103 127 148 162 202 270 270 269 273 276 280 283 283 288 292 299 306 309 310 312 310 306 303 299 297 292 287 284 282 280 278 278 277 276 274 273 274 273 272 273 273
66 81 101 120 139 158 177 221 295 298 302 299 297 297 299 301 304 307 309 310 310 309 312 311 304 300 299 297 292 288 285 283 282 281 280 279 277 275 272 271 273 273 272
43 51 74 104 144 174 192 194 189 336 310 303 300 298 296 296 298 300 306 308 310 314 312 310 310 306 303 299 295 292 288 283 283 282 283 282 280 275 275 273 270 269 271
34 37 39 48 75 176 210 211 211 214 213 284 300 304 303 303 306 306 304 307 309 312 313 314 316 312 311 306 299 295 292 285 284 284 285 285 283 279 275 273 273 270 269
9 21 18 26 38 44 199 209 214 219 223 235 278 312 314 312 310 309 309 311 314 319 320 320 322 320 312 310 305 301 294 290 290 286 286 287 285 282 280 276 271 270 270
350 354 349 355 2 14 20 218 339 297 263 272 305 311 311 308 306 306 310 315 318 323 326 329 329 327 323 314 307 303 300 292 291 290 289 289 288 285 281 277 273 270 269
343 345 344 340 336 333 329 330 334 337 333 326 319 314 314 312 303 301 308 314 319 324 329 333 336 337 332 321 310 305 301 296 295 292 291 292 291 289 285 280 276 273 272
338 340 336 337 333 330 325 321 320 320 320 319 318 316 315 318 311 303 307 311 316 322 327 331 336 342 346 336 324 310 299 295 298 297 295 295 293 290 290 284 280 280 274
331 330 328 325 328 326 324 325 324 319 318 317 318 315 314 315 312 307 303 306 312 318 325 328 335 342 347 342 323 313 308 301 297 299 299 299 294 286 286 286 285 275 275
329 325 324 320 318 319 319 320 322 324 323 318 315 313 310 310 308 306 305 304 310 315 320 324 330 335 342 337 334 319 318 313 309 302 306 304 301 273 272 282 290 286 276
326 322 318 316 313 311 311 309 312 316 318 319 316 311 308 305 304 304 304 304 307 312 317 320 325 332 339 335 334 328 330 327 323 309 314 318 324 315 299 298 295 275 273
318 317 318 316 313 312 310 308 306 308 310 311 311 311 308 303 301 300 300 302 305 309 313 317 321 327 339 340 334 336 340 345 329 315 325 322 332 332 318 306 298 290 291
316 316 315 314 313 311 311 309 305 305 305 304 305 305 305 304 301 296 297 298 300 304 309 313 316 322 332 337 344 343 339 350 353 331 333 334 336 326 333 331 312 302 306
315 314 313 312 312 312 311 310 306 303 301 302 301 302 300 299 298 298 293 295 296 298 303 308 312 318 325 332 336 349 350 348 359 2 352 347 357 357 353 349 338 338 326
312 313 313 311 310 311 311 308 307 305 302 300 299 297 296 294 294 293 294 290 291 293 296 301 305 309 316 325 328 330 340 344 346 346 348 351 1 6 18 27 16 5 33
313 314 314 314 316 315 312 309 308 308 305 302 299 297 293 289 289 287 288 288 286 287 289 293 298 301 306 314 322 328 331 338 341 342 335 338 347 353 1 358 353 1 6
315 316 315 315 316 316 314 310 309 308 307 304 301 296 292 288 283 282 282 282 282 281 284 286 289 293 297 306 314 321 329 331 334 339 351 355 357 358 358 355 350 344 350
315 316 316 315 314 315 313 310 306 305 304 303 299 295 290 286 281 279 278 278 278 278 277 279 282 286 289 294 303 312 321 332 336 337 340 349 352 353 350 349 351 349 349
317 318 318 318 317 317 314 310 305 304 303 301 297 294 290 286 281 278 278 274 276 275 274 276 278 280 283 286 292 299 305 312 321 330 330 330 333 336 341 343 342 341 343
319 321 322 322 322 321 317 312 308 305 301 297 294 292 290 286 282 278 278 273 274 273 274 272 275 279 284 284 288 293 299 306 311 311 313 314 319 319 324 328 333 336 337